Weather History for KMOX - March, 2014

Change the Weather History Date:

Thursday, March 27, 2014

  Actual Average Record
Temperature  
Mean Temperature 33 °F -  
Max Temperature 42 °F 41 °F 60 °F (2005)
Min Temperature 23 °F 24 °F 1 °F (2001)
Degree Days  
Heating Degree Days 32    
Moisture  
Dew Point 29 °F    
Average Humidity 82    
Maximum Humidity 100    
Minimum Humidity 70    
Precipitation  
Precipitation 0.13 in - - ()
Sea Level Pressure  
Sea Level Pressure 29.55 in    
Wind  
Wind Speed 13 mph (North)    
Max Wind Speed 23 mph    
Max Gust Speed 29 mph    
Visibility 7 miles    
Events Fog , Snow    
Averages and records for this station are not official NWS values.
T = Trace of Precipitation, MM = Missing Value Source: NWS Daily Summary

Daily Weather History Graph

Daily Weather History Graph

Search for Another Location

Airport or City:

Trip Planner

Search our weather history database for the weather conditions in past years. The results will help you decide how hot, cold, wet, or windy it might be!

Date:

Astronomy

Mar. 27, 2014 Rise Set
Actual Time 7:13 AM CDT 7:45 PM CDT
Civil Twilight 6:43 AM CDT 8:15 PM CDT
Nautical Twilight 6:08 AM CDT 8:50 PM CDT
Astronomical Twilight 5:32 AM CDT 9:27 PM CDT
Moon 5:15 AM CDT (3/27) 4:25 PM CDT (3/27)
Length of Visible Light 13h 31m
Length of Day
12h 32m
Waning Crescent, 13% of the Moon is Illuminated
Mar 27
Waning Crescent
Mar 30
New
Apr 7
First Quarter
Apr 15
Full
Apr 22
Last Quarter

Hourly Weather History & Observations

Time (CDT) Temp. Windchill Dew Point Humidity Pressure Visibility Wind Dir Wind Speed Gust Speed Precip Events Conditions
12:12 AM 39.2 °F 32.0 °F 30.2 °F 70% 29.41 in 10.0 mi SE 11.5 mph - N/A   Clear
12:32 AM 39.2 °F 32.5 °F 32.0 °F 75% 29.41 in 10.0 mi SE 10.4 mph - N/A   Clear
12:52 AM 41.0 °F 34.7 °F 33.8 °F 76% 29.41 in 10.0 mi SE 10.4 mph - N/A   Clear
1:12 AM 41.0 °F 35.2 °F 33.8 °F 76% 29.40 in 10.0 mi SE 9.2 mph - N/A   Clear
1:32 AM 42.8 °F 37.5 °F 35.6 °F 76% 29.40 in 10.0 mi SSE 9.2 mph - N/A   Clear
1:52 AM 42.8 °F 38.0 °F 35.6 °F 76% 29.41 in 10.0 mi SSE 8.1 mph - N/A   Clear
2:12 AM 42.8 °F 38.0 °F 35.6 °F 76% 29.40 in 10.0 mi SE 8.1 mph - N/A   Clear
2:32 AM 42.8 °F 37.5 °F 35.6 °F 76% 29.40 in 10.0 mi SE 9.2 mph - N/A   Clear
2:52 AM 42.8 °F 37.5 °F 35.6 °F 76% 29.40 in 10.0 mi SE 9.2 mph - N/A   Clear
3:12 AM 41.0 °F 35.2 °F 35.6 °F 81% 29.41 in 10.0 mi SE 9.2 mph - N/A   Clear
3:32 AM 41.0 °F 36.4 °F 35.6 °F 81% 29.40 in 10.0 mi SE 6.9 mph - N/A   Clear
3:52 AM 41.0 °F 36.4 °F 35.6 °F 81% 29.40 in 10.0 mi SSE 6.9 mph - N/A   Clear
4:12 AM 42.8 °F 38.6 °F 37.4 °F 81% 29.40 in 10.0 mi SE 6.9 mph - N/A   Clear
4:32 AM 41.0 °F 35.8 °F 37.4 °F 87% 29.39 in 10.0 mi SE 8.1 mph - N/A   Clear
4:52 AM 42.8 °F 38.6 °F 37.4 °F 81% 29.40 in 10.0 mi SE 6.9 mph - N/A   Clear
5:12 AM 42.8 °F 38.6 °F 37.4 °F 81% 29.40 in 10.0 mi SE 6.9 mph - N/A   Clear
5:32 AM 41.0 °F 37.1 °F 37.4 °F 87% 29.41 in 10.0 mi SE 5.8 mph - N/A   Clear
5:52 AM 41.0 °F 38.0 °F 37.4 °F 87% 29.41 in 5.0 mi SE 4.6 mph - N/A   Clear
6:12 AM 41.0 °F - 37.4 °F 87% 29.42 in 2.0 mi Calm Calm - N/A   Mist
6:32 AM 39.2 °F 37.0 °F 37.4 °F 93% 29.42 in 1.0 mi NNW 3.5 mph - N/A   Mist
6:52 AM 39.2 °F - 37.4 °F 93% 29.43 in 0.8 mi Calm Calm - N/A   Mist
7:12 AM 39.2 °F - 37.4 °F 93% 29.44 in 0.5 mi Calm Calm - N/A Fog Fog
7:32 AM 37.4 °F 30.3 °F 35.6 °F 93% 29.44 in 0.8 mi NNW 10.4 mph - N/A   Drizzle
7:52 AM 33.8 °F 23.9 °F 33.8 °F 100% 29.45 in 1.0 mi NW 15.0 mph - N/A   Light Drizzle
8:12 AM 33.8 °F 23.5 °F 32.0 °F 93% 29.44 in 1.2 mi North 16.1 mph - N/A Snow Light Snow
8:32 AM 33.8 °F 24.3 °F 32.0 °F 93% 29.44 in 1.2 mi North 13.8 mph 18.4 mph N/A   Mist
8:52 AM 32.0 °F 21.2 °F 30.2 °F 93% 29.45 in 2.0 mi North 16.1 mph 20.7 mph N/A   Unknown
9:12 AM 33.8 °F 23.5 °F 30.2 °F 87% 29.45 in 1.8 mi North 16.1 mph - N/A   Unknown
9:32 AM 32.0 °F 21.2 °F 30.2 °F 93% 29.46 in 2.5 mi North 16.1 mph - 0.01 in   Unknown
9:52 AM 33.8 °F 24.3 °F 30.2 °F 87% 29.47 in 3.0 mi North 13.8 mph 19.6 mph 0.02 in   Unknown
10:12 AM 32.0 °F 20.8 °F 30.2 °F 93% 29.48 in 3.0 mi North 17.3 mph 24.2 mph 0.01 in Snow Light Snow
10:32 AM 30.2 °F 19.3 °F 28.4 °F 93% 29.49 in 0.8 mi North 15.0 mph 25.3 mph 0.03 in Snow Light Snow
10:52 AM 30.2 °F 17.4 °F 28.4 °F 93% 29.50 in 0.5 mi North 20.7 mph 24.2 mph 0.04 in Snow Snow
11:12 AM 28.4 °F 15.8 °F 28.4 °F 100% 29.51 in 0.5 mi North 18.4 mph 28.8 mph N/A Snow Light Snow
11:32 AM 28.4 °F 15.8 °F 26.6 °F 93% 29.52 in 0.5 mi North 18.4 mph 23.0 mph 0.02 in Snow Light Snow
11:52 AM 28.4 °F 16.2 °F 26.6 °F 93% 29.52 in 0.5 mi North 17.3 mph 23.0 mph 0.03 in Snow Light Snow
12:12 PM 28.4 °F 16.2 °F 26.6 °F 93% 29.52 in 0.5 mi North 17.3 mph 23.0 mph 0.01 in Snow Light Snow
12:32 PM 30.2 °F 18.1 °F 26.6 °F 86% 29.52 in 1.0 mi North 18.4 mph 23.0 mph 0.02 in Snow Light Snow
12:52 PM 30.2 °F 18.1 °F 26.6 °F 86% 29.53 in 1.2 mi North 18.4 mph 25.3 mph 0.03 in Snow Light Snow
1:12 PM 30.2 °F 17.8 °F 26.6 °F 86% 29.53 in 1.5 mi North 19.6 mph 26.5 mph N/A Snow Light Snow
1:32 PM 30.2 °F 17.4 °F 26.6 °F 86% 29.54 in 1.8 mi North 20.7 mph 25.3 mph N/A Snow Light Snow
1:52 PM 30.2 °F 17.4 °F 26.6 °F 86% 29.55 in 1.5 mi North 20.7 mph 26.5 mph N/A Snow Light Snow
2:12 PM 30.2 °F 17.8 °F 26.6 °F 86% 29.55 in 1.5 mi North 19.6 mph 28.8 mph N/A Snow Light Snow
2:32 PM 32.0 °F 20.8 °F 26.6 °F 80% 29.56 in 7.0 mi North 17.3 mph - N/A   Clear
2:52 PM 33.8 °F 23.2 °F 26.6 °F 75% 29.57 in 10.0 mi North 17.3 mph 23.0 mph 0.01 in   Clear
3:12 PM 33.8 °F 22.8 °F 26.6 °F 75% 29.57 in 10.0 mi North 18.4 mph 27.6 mph N/A   Clear
3:32 PM 33.8 °F 22.5 °F 26.6 °F 75% 29.58 in 10.0 mi North 19.6 mph 25.3 mph N/A   Clear
3:52 PM 33.8 °F 22.8 °F 26.6 °F 75% 29.59 in 10.0 mi North 18.4 mph 26.5 mph N/A   Clear
4:12 PM 33.8 °F 22.2 °F 26.6 °F 75% 29.59 in 10.0 mi North 20.7 mph 26.5 mph N/A   Clear
4:32 PM 35.6 °F 24.8 °F 26.6 °F 70% 29.60 in 10.0 mi North 19.6 mph 25.3 mph N/A   Clear
4:52 PM 35.6 °F 24.8 °F 26.6 °F 70% 29.60 in 10.0 mi North 19.6 mph 25.3 mph N/A   Clear
5:12 PM 35.6 °F 25.9 °F 26.6 °F 70% 29.61 in 10.0 mi North 16.1 mph 25.3 mph N/A   Clear
5:32 PM 35.6 °F 24.2 °F 26.6 °F 70% 29.62 in 10.0 mi NNW 21.9 mph 26.5 mph N/A   Clear
5:52 PM 33.8 °F 21.6 °F 26.6 °F 75% 29.63 in 10.0 mi North 23.0 mph 27.6 mph N/A   Clear
6:12 PM 33.8 °F 21.9 °F 26.6 °F 75% 29.64 in 10.0 mi North 21.9 mph 27.6 mph N/A   Clear
6:32 PM 33.8 °F 21.9 °F 24.8 °F 70% 29.65 in 10.0 mi North 21.9 mph 26.5 mph N/A   Clear
6:52 PM 32.0 °F 19.5 °F 24.8 °F 75% 29.66 in 10.0 mi North 21.9 mph 26.5 mph N/A   Clear
7:12 PM 32.0 °F 20.1 °F 24.8 °F 75% 29.68 in 10.0 mi North 19.6 mph - N/A   Clear
7:32 PM 30.2 °F 18.9 °F 24.8 °F 80% 29.69 in 10.0 mi North 16.1 mph - N/A   Clear
7:52 PM 30.2 °F 19.3 °F 24.8 °F 80% 29.71 in 10.0 mi North 15.0 mph - N/A   Clear
8:00 PM 30.2 °F 18.1 °F 24.8 °F 80% 29.71 in 10.0 mi North 18.4 mph - N/A   Clear
8:32 PM 30.2 °F 18.1 °F 23.0 °F 75% 29.74 in 10.0 mi North 18.4 mph 24.2 mph N/A   Clear
8:52 PM 30.2 °F 18.5 °F 23.0 °F 75% 29.75 in 10.0 mi NNW 17.3 mph - N/A   Clear
9:03 PM 28.4 °F - 23.0 °F 80% 29.76 in 10.0 mi North - - N/A   Clear
9:32 PM 28.4 °F 15.8 °F 21.2 °F 74% 29.78 in 10.0 mi NNW 18.4 mph - N/A   Clear
9:52 PM 28.4 °F 16.6 °F 21.2 °F 74% 29.79 in 10.0 mi NNW 16.1 mph - N/A   Clear
10:12 PM 28.4 °F 16.6 °F 21.2 °F 74% 29.80 in 10.0 mi NNW 16.1 mph - N/A   Clear
10:32 PM 26.6 °F 14.7 °F 21.2 °F 80% 29.82 in 10.0 mi NNW 15.0 mph - N/A   Clear
10:52 PM 24.8 °F 11.1 °F 19.4 °F 80% 29.83 in 10.0 mi NNW 18.4 mph - N/A   Clear
11:12 PM 24.8 °F 11.5 °F 19.4 °F 80% 29.84 in 10.0 mi NNW 17.3 mph - N/A   Clear
11:32 PM 24.8 °F 11.9 °F 17.6 °F 74% 29.85 in 10.0 mi NNW 16.1 mph - N/A   Clear
11:52 PM 23.0 °F 9.2 °F 17.6 °F 80% 29.86 in 10.0 mi NNW 17.3 mph - N/A   Clear